Torna al catalogo

STARLINK-37861

AttivoComunicazioniSSO
NORAD 69552·PAYLOAD·🇺🇸 United States

Lanciato Jun 15, 2026 da Vandenberg Space Force Base

Loading…

Prossimi Passaggi (prossime 24 ore)

TLE

AggiornatoSource: CelesTrak SupGP

Epoca: Sep 15, 2026, 04:21 UTC

1 69552C 26135G   26258.18173611 -.00056488  00000+0 -17536-2 0  2589
2 69552  97.2838 285.9131 0001252  86.6398 257.5472 15.33466294    11

Traccia STARLINK-37861 in tempo reale con AllMySat

Download on the App Store